EW9774 Weather Reports


time (UTC)temp
C
wind
direction
speed
KPH
gust
KPH
rain 1hr
cm
rain 24hr
cm
rain mn
cm
humidity
%
barometer
mb
20260906224530 16 188 3.2 8.0 0.00 0.36 0.36 86 1018.6
20260906221529 16 183 1.6 8.0 0.00 0.36 0.36 87 1018.6
20260906214530 15 303 1.6 8.0 0.00 0.36 0.36 88 1018.7
20260906213030 15 344 0.0 4.8 0.00 0.36 0.36 89 1018.7
20260906211531 15 195 0.0 4.8 0.00 0.36 0.36 89 1018.7
20260906210031 14 189 0.0 3.2 0.00 0.36 0.36 89 1018.7
20260906204531 14 197 0.0 4.8 0.00 0.36 0.36 89 1018.6
20260906203029 13 138 0.0 4.8 0.00 0.36 0.36 90 1018.6
20260906201531 13 179 0.0 6.4 0.00 0.36 0.36 90 1018.6
20260906200108 13 180 1.6 4.8 0.00 0.36 0.36 90 1018.7
20260906194529 13 164 1.6 6.4 0.00 0.36 0.36 92 1018.7
20260906193107 13 126 0.0 3.2 0.00 0.36 0.36 93 1018.7
20260906191529 13 129 0.0 4.8 0.00 0.36 0.36 94 1018.8
20260906190144 13 133 3.2 6.4 0.00 0.36 0.36 95 1018.9
20260906184531 12 135 0.0 3.2 0.00 0.36 0.36 96 1018.9
20260906183031 12 135 1.6 4.8 0.00 0.36 0.36 97 1018.9
20260906181531 12 135 1.6 4.8 0.00 0.36 0.36 97 1018.9
20260906180029 12 133 1.6 4.8 0.00 0.36 0.36 97 1018.9
20260906174529 12 110 0.0 3.2 0.00 0.36 0.36 97 1018.9
20260906170030 12 75 3.2 6.4 0.00 0.36 0.36 97 1018.8
20260906163031 12 41 3.2 9.7 0.03 0.36 0.36 97 1018.7
20260906161528 12 17 3.2 8.0 0.05 0.36 0.36 97 1018.6
20260906160029 12 180 0.0 0.0 0.08 0.36 0.36 97 1018.6
20260906154532 12 180 0.0 0.0 0.10 0.36 0.33 97 1018.6
20260906151644 12 180 0.0 0.0 0.10 0.30 0.28 97 1018.3
20260906141607 12 181 0.0 3.2 0.08 0.20 0.18 97 1017.6
20260906140032 12 200 0.0 3.2 0.05 0.18 0.15 97 1017.5
20260906133029 12 181 0.0 4.8 0.00 0.13 0.13 97 1017.2
20260906131530 12 180 0.0 3.2 0.00 0.13 0.13 97 1017.0
20260906130108 12 180 0.0 0.0 0.00 0.13 0.13 97 1017.0
20260906123032 12 196 1.6 4.8 0.00 0.13 0.13 96 1017.3
20260906121529 12 337 0.0 1.6 0.00 0.13 0.13 96 1017.3
20260906120030 12 341 0.0 4.8 0.00 0.13 0.13 96 1017.4
20260906114531 12 127 0.0 3.2 0.00 0.13 0.13 96 1017.5
20260906113028 12 135 0.0 4.8 0.00 0.13 0.13 96 1017.4
20260906111605 12 171 3.2 6.4 0.03 0.13 0.13 96 1017.5
20260906104531 12 180 1.6 6.4 0.05 0.13 0.13 96 1017.8
20260906103029 12 192 1.6 6.4 0.08 0.13 0.10 96 1017.8
20260906101533 12 192 0.0 6.4 0.10 0.10 0.10 95 1017.9
20260906094605 12 181 6.4 14.5 0.08 0.08 0.05 95 1017.9
20260906093030 12 125 0.0 6.4 0.05 0.05 0.00 95 1017.8
20260906091529 12 156 1.6 6.4 0.00 0.00 0.00 94 1017.7
20260906084543 12 180 0.0 3.2 0.00 0.00 0.00 94 1017.7
20260906083030 12 180 0.0 3.2 0.00 0.00 0.00 94 1017.8
20260906081530 12 180 0.0 3.2 0.00 0.00 0.00 94 1017.7
20260906080032 11 180 1.6 4.8 0.00 0.00 0.00 94 1017.7
20260906074646 11 191 0.0 3.2 0.00 0.00 0.00 94 1017.7
20260906073030 11 201 1.6 4.8 0.00 0.00 0.00 94 1017.7
20260906071541 11 184 6.4 16.1 0.00 0.00 0.00 93 1017.8
20260906070033 11 180 3.2 6.4 0.00 0.00 0.00 92 1018.0
20260906064542 11 180 1.6 4.8 0.00 0.00 0.00 92 1018.1
20260906063108 11 180 0.0 3.2 0.00 0.03 0.00 92 1018.2
20260906054605 12 181 4.8 14.5 0.00 0.03 0.00 91 1018.2
20260906053032 12 183 4.8 16.1 0.00 0.03 0.00 91 1018.3
20260906051533 12 185 3.2 11.3 0.00 0.03 0.00 91 1018.2
20260906050031 12 185 6.4 14.5 0.00 0.03 0.00 90 1018.3
20260906044606 12 180 3.2 11.3 0.00 0.03 0.00 90 1018.4
20260906043231 -17 0 0.0 0.0 0.00 0.03 0.00 100
20260906034531 13 195 1.6 16.1 0.00 0.03 0.00 89 1018.0
20260906033028 13 181 6.4 14.5 0.00 0.03 0.00 89 1017.8
20260906031528 13 192 4.8 12.9 0.00 0.03 0.00 89 1017.7
20260906030029 13 181 6.4 12.9 0.00 0.03 0.00 88 1017.6
20260906024533 13 189 3.2 6.4 0.00 0.03 0.00 87 1017.6
20260906021528 15 202 0.0 3.2 0.00 0.03 0.00 84 1017.5
20260906020029 16 183 0.0 1.6 0.00 0.03 0.00 82 1017.4
20260906013029 17 196 1.6 6.4 0.00 0.03 0.00 77 1017.6
20260906011531 17 190 1.6 4.8 0.00 0.03 0.00 77 1017.6
20260906010106 17 180 1.6 6.4 0.00 0.03 0.00 76 1017.6
20260906004532 17 181 1.6 9.7 0.00 0.03 0.00 75 1017.8
20260906003032 17 196 1.6 8.0 0.00 0.03 0.00 76 1017.9
20260906001531 17 195 4.8 14.5 0.00 0.03 0.00 81 1018.2
20260906000031 16 189 3.2 11.3 0.00 0.03 0.00 80 1018.2
20260905233031 17 177 4.8 9.7 0.00 0.03 0.00 74 1018.0
20260905231529 18 175 1.6 11.3 0.00 0.03 0.00 71 1017.9